SCP
0 0 0 0 0 0 0 0 0 0 0 -0 -0 -0 -0 -0 -0 -0 -0 -0 -0 -0 0 0 0 0 0 0 0 0 0 0 0 0 0 0 0 0 0 0 0 0 0 0
0 0 0 0 0 0 0 0 0 0 -0 -0 -0 -0 -0 -0 0 -0 -0 -0 -0 0 0 0 0 0 0 0 0 0 0 0 0 0 0 0 0 0 0 0 0 0 0 0
0 0 0 0 0 0 0 0 0 0 -0 0 -0 0 0 0 0 0 0 0 0 0 0 0 0 0 0 0 0 0 0 0 0 0 0 0 0 0 0 0 0 0 0 0
0 0 0 0 0 0 0 0 0 0 0 0 0 0 0 0 0 0 0 0 0 0 0 -0 0 0 0 0 0 0 0 0 0 0 0 0 0 0 0 0 0 0 0 0
0 0 0 0 0 0 0 0 0 0 0 0 0 0 0 0 0 0 0 0 0 -0 -0 -0 0 -0 0 0 0 0 0 0 0 0 0 0 0 0 0 0 0 0 0 0
0 0 0 0 0 0 0 0 0 0 0 0 0 0 0 0 0 0 0 0 -0 0 -0 -0 -0 0 0 0 0 0 0 0 0 0 0 0 0 0 0 0 0 0 0 0
0 0 0 0 0 0 0 0 0 0 0 0 0 0 0 0 0 0 0 -0 -0 -0 -0 0 0 0 0 0 0 0 0 0 0 0 0 0 0 0 0 0 0 0 0 0
0 0 0 0 0 0 0 0 0 0 0 0 0 0 0 0 0 0 0 0 0 0 0 0 0 0 0 0 0 0 0 0 0 0 0 0 0 0 0 0 0 0 0 0
0 0 0 0 0 0 0 0 0 0 0 0 0 0 0 0 0 0 0 0 0 0 0 0 0 0 0 0 0 0 0 0 0 0 0 0 0 0 0 0 0 0 0 0
0 0 0 0 0 0 0 0 -0 -0 0 0 0 0 0 0 0 0 0 0 0 0 0 0 0 0 0 0 0 0 0 0 0 0 0 0 0 0 0 0 0 0 0 0
0 0 0 0 0 0 0 0 -0 -0 0 0 0 0 0 0 0 0 0 0 0 0 0 0 0 0 0 0 0 0 0 0 0 0 0 0 0 0 0 0 0 0 0 0
0 0 0 0 0 0 0 0 -0 -0 0 0 0 0 0 0 0 0 0 0 0 0 0 0 0 0 0 0 0 0 0 0 0 0 0 0 0 0 0 0 0 0 0 0
0 0 0 0 0 0 0 0 0 0 0 0 0 0 0 0 0 0 0 0 0 0 0 0 0 0 0 0 0 0 0 0 0 0 0 0 0 0 0 0 0 0 0 0
0 0 0 0 0 0 0 0 0 0 0 0 0 0 0 0 0 0 0 0 0 0 0 0 0 0 0 0 0 0 0 0 0 0 0 0 0 0 0 0 0 0 0 0
0 0 0 0 0 0 0 0 0 0 0 0 0 0 0 0 0 0 0 0 0 0 0 0 0 0 0 0 0 0 0 0 0 0 0 0 0 0 0 0 0 0 0 0
0 0 0 0 0 0 0 0 0 0 0 0 0 0 0 0 0 0 0 0 0 0 0 0 0 0 0 0 0 0 0 0 0 0 0 0 0 0 0 0 0 0 0 0
0 0 0 0 0 0 0 0 0 0 0 0 0 0 0 0 0 0 0 0 0 0 0 0 0 0 0 0 0 0 0 0 0 0 0 0 0 0 0 0 0 0 0 0
0 0 0 0 0 0 0 0 0 0 0 0 0 0 0 0 0 0 0 0 0 0 0 0 0 0 0 0 0 0 0 0 0 0 0 0 0 0 0 0 0 0 0 0
0 0 0 0 0 0 0 0 0 0 0 0 0 0 0 0 0 0 0 0 0 0 0 0 0 0 0 0 0 0 0 0 0 0 0 0 0 0 0 0 0 0 0 0
0 0 0 0 0 0 0 0 0 0 0 0 0 0 0 0 0 0 0 0 0 0 0 0 0 0 0 0 0 0 0 0 0 0 0 0 0 0 0 0 0 0 0 0
0 0 0 0 0 0 0 0 0 0 0 0 0 0 0 0 0 0 0 0 0 0 0 0 0 0 0 0 0 0 0 0 0 0 0 0 0 0 0 0 0 0 0 0
0 0 0 0 0 0 0 0 0 0 0 0 0 0 0 0 0 0 0 0 0 0 0 0 0 0 0 0 0 0 0 0 0 0 0 0 0 0 0 0 0 0 0 0
0 0 0 0 0 0 0 0 0 0 0 0 0 0 0 0 0 0 0 0 0 0 0 0 0 0 0 0 0 0 0 0 0 0 0 0 0 0 0 0 0 0 0 0
0 0 0 0 0 0 0 0 0 0 0 0 0 0 0 0 0 0 0 0 0 0 0 0 0 0 0 0 0 0 0 0 0 0 0 0 0 0 0 0 0 0 0 0
0 0 0 0 0 0 0 0 0 0 0 0 0 0 0 0 0 0 0 0 0 0 0 0 0 0 0 0 0 0 0 0 0 0 0 0 0 0 0 0 0 0 0 0
0 0 0 0 0 0 0 0 0 0 0 0 0 0 0 0 0 0 0 0 0 0 0 0 0 0 0 0 0 0 0 0 0 0 0 0 0 0 0 0 0 0 0 0
Wind_Speed_500mb
10 12 4 7 1 7 3 5 11 8 3 16 10 15 19 22 52 46 47 58 54 45 35 25 24 26 27 41 42 36 24 14 17 16 23 24 12 2 9 13 23 28 28 35
13 4 1 12 10 5 10 8 4 9 16 23 25 25 17 25 21 38 49 62 67 62 55 45 34 25 20 25 23 13 13 14 16 16 10 5 12 14 23 27 26 35 47 47
9 3 7 11 13 11 8 4 5 11 15 13 23 18 15 15 29 40 47 56 59 55 45 37 35 30 27 19 19 17 11 0 10 14 17 18 18 22 28 35 40 44 41 43
12 11 9 10 10 5 6 4 5 18 10 9 7 5 4 6 8 15 33 49 53 48 48 42 38 36 29 25 20 15 11 11 12 14 20 27 27 31 33 36 39 34 35 31
7 5 10 10 2 4 5 3 5 4 7 9 7 11 6 11 7 9 23 45 47 39 36 39 35 30 23 21 15 15 14 15 20 26 29 32 33 34 35 31 26 23 25 34
6 3 6 3 1 1 4 9 13 9 6 5 4 10 12 15 14 11 18 39 46 39 42 39 32 21 19 12 9 6 3 9 17 25 28 32 33 31 27 29 26 27 45 50
10 8 9 5 4 4 11 10 6 7 7 8 7 4 11 23 21 21 36 44 40 38 31 27 24 18 12 7 4 5 7 14 22 26 33 35 29 29 31 38 48 61 58 58
7 9 8 11 3 3 6 9 9 10 6 5 8 3 7 10 38 50 47 42 33 29 30 29 22 12 9 10 7 4 9 15 17 21 21 26 31 38 43 43 50 52 58 49
8 3 6 3 3 4 2 7 6 13 6 6 5 5 10 10 16 34 34 37 32 31 29 28 19 17 13 7 6 9 16 18 16 19 24 31 38 45 50 55 58 62 59 48
10 7 4 7 6 8 8 8 7 8 6 2 5 6 8 16 18 8 13 38 37 39 39 34 29 20 10 3 11 17 15 13 21 26 32 36 36 39 47 52 59 56 48 45
5 6 8 5 6 1 8 5 12 10 6 8 4 10 9 18 15 15 27 47 51 47 40 34 22 11 2 10 12 6 8 15 24 30 43 48 50 59 64 60 57 51 46 38
2 9 5 2 10 6 2 5 8 9 6 3 7 9 7 15 31 44 40 52 46 41 33 23 14 4 5 4 1 9 17 25 35 43 53 53 61 66 62 54 44 43 40 53
3 4 6 13 12 10 4 6 9 11 6 9 9 10 5 18 18 21 51 51 42 33 25 15 6 6 6 6 6 15 25 34 39 46 51 63 70 62 63 57 43 42 45 47
6 6 10 13 8 5 5 5 6 8 6 6 11 8 9 9 16 30 40 39 31 21 11 8 9 8 12 10 15 21 28 36 42 51 62 67 61 60 59 57 46 44 51 55
8 7 2 5 8 3 2 6 10 12 9 11 12 15 15 18 20 41 40 30 23 15 10 9 8 13 13 14 19 26 32 39 49 56 60 56 59 61 58 56 47 40 37 35
9 6 2 2 11 11 6 10 13 11 7 12 6 8 7 28 33 39 36 30 22 14 10 8 12 15 21 21 26 25 34 45 53 55 53 54 58 60 56 52 43 34 35 39
7 9 5 6 7 9 12 15 13 7 6 11 12 15 24 13 32 41 35 26 19 14 11 13 18 22 23 25 25 31 39 45 49 48 50 57 55 54 58 51 39 36 42 36
10 8 5 4 6 3 11 8 12 9 3 6 6 17 30 36 38 32 27 24 20 18 15 19 22 22 25 26 28 31 41 45 42 42 55 53 55 58 58 46 35 27 28 25
8 9 7 7 6 10 11 10 12 12 13 11 15 16 25 25 19 26 33 26 18 19 18 19 18 23 21 22 27 39 41 33 39 52 57 51 54 63 50 44 37 33 32 26
10 11 8 5 8 13 12 6 12 10 10 37 33 33 31 34 6 11 40 29 20 20 17 17 20 16 17 24 35 34 31 43 56 53 48 51 63 51 41 33 28 19 15 23
5 6 9 5 6 16 14 11 8 10 14 47 54 54 48 20 25 7 28 25 20 20 18 16 13 15 24 35 37 37 48 53 45 46 45 52 53 43 33 27 31 36 37 33
14 12 7 6 3 16 21 10 14 11 14 41 56 55 62 51 22 21 22 26 20 19 16 12 16 27 38 40 43 49 45 42 46 46 54 50 46 40 32 31 27 23 20 17
5 13 10 18 12 8 36 17 42 18 18 36 47 51 42 34 27 24 28 25 23 17 11 17 30 38 39 41 44 47 47 51 56 58 57 43 38 37 29 30 26 20 15 16
8 15 6 5 10 30 33 43 42 31 32 29 38 39 37 34 32 33 31 26 15 10 18 30 35 40 43 44 43 46 52 54 53 53 37 34 33 29 28 28 23 15 18 25
9 16 8 9 19 25 29 39 44 46 38 30 34 34 36 34 34 36 31 17 11 17 26 32 38 42 44 44 47 53 54 54 47 44 34 35 38 21 26 22 16 23 29 32
18 14 8 13 33 24 28 27 34 45 47 39 40 36 34 34 38 28 17 7 15 23 28 34 39 43 45 48 54 56 50 47 41 43 38 36 35 17 18 20 25 30 37 24
Wind_Direction_500mb
23 61 104 51 140 169 176 161 224 249 78 74 54 46 24 55 105 107 103 106 106 107 114 138 169 184 198 210 214 231 247 214 222 199 191 201 259 195 265 286 300 289 280 301
23 77 286 85 54 76 72 117 20 88 66 88 74 44 42 44 75 107 109 105 105 104 99 98 106 122 148 173 173 166 231 183 191 192 198 346 305 290 288 289 298 307 307 305
125 310 40 87 44 74 33 56 70 98 70 67 88 38 11 25 74 104 112 115 114 110 104 109 115 118 119 111 97 84 78 216 279 279 321 340 319 306 303 297 301 309 302 299
72 337 100 71 82 94 48 335 40 108 96 172 81 136 -0 34 53 84 123 123 121 124 117 117 114 111 101 94 93 88 76 53 26 359 339 334 326 317 309 306 304 300 296 292
239 71 70 64 81 112 177 74 98 71 112 90 27 92 227 137 163 172 160 142 135 124 126 126 118 107 87 81 70 50 31 11 357 342 331 328 317 303 296 289 282 278 284 296
88 119 77 221 307 250 128 95 41 51 82 56 274 127 204 193 192 178 187 157 148 152 142 124 110 91 78 112 114 93 34 336 323 316 313 306 284 284 277 273 270 296 312 303
8 354 319 37 94 6 73 71 13 9 12 202 303 78 222 204 167 183 183 174 167 159 148 128 122 135 156 161 215 256 279 305 314 311 311 305 296 308 313 312 316 316 316 306
120 351 2 335 94 200 54 138 150 185 178 238 5 357 274 165 159 180 177 172 171 159 143 144 142 153 142 122 98 33 321 325 336 336 349 348 334 328 332 326 323 322 329 316
131 316 316 293 352 114 154 47 151 107 1 72 276 22 -0 71 136 165 174 170 173 164 152 148 155 153 140 111 54 356 346 341 351 1 350 338 336 334 334 331 326 324 321 316
183 104 9 309 55 21 114 145 52 9 123 231 278 220 218 201 199 198 112 141 136 152 148 143 138 133 120 4 334 329 327 325 340 344 341 337 335 330 328 322 321 313 305 298
98 96 279 20 24 299 3 38 63 107 107 156 174 257 217 196 178 161 128 142 141 147 150 143 140 133 23 335 332 344 357 1 348 343 341 335 335 333 327 321 316 306 292 276
22 121 101 211 294 296 189 129 110 107 219 51 145 276 347 147 155 143 140 149 150 146 141 139 140 140 320 324 40 8 353 339 337 335 334 333 332 332 332 333 320 298 283 289
170 19 63 353 350 348 101 63 91 102 91 194 130 264 21 118 129 149 145 150 144 142 142 147 176 197 165 181 319 330 329 330 332 330 333 337 338 336 335 332 326 313 309 300
100 88 149 182 198 186 143 125 125 116 118 186 220 192 210 171 150 146 151 150 149 148 154 172 182 188 193 258 303 321 325 329 332 333 337 339 339 339 336 337 330 315 307 301
79 117 69 61 29 15 278 170 186 193 185 167 250 203 203 183 166 162 159 157 163 181 203 202 212 193 247 281 305 314 322 327 331 333 338 341 339 338 336 334 329 316 303 298
13 154 340 113 4 3 284 245 245 234 209 258 151 245 188 163 161 164 175 181 194 219 246 220 254 253 256 281 298 309 320 324 329 333 337 339 338 336 334 334 328 326 303 293
70 125 81 253 341 333 335 218 195 193 192 151 185 213 159 167 173 181 190 201 214 232 232 239 258 249 262 292 301 311 316 321 327 330 334 336 334 333 336 332 327 320 318 282
122 93 77 182 16 22 244 299 237 188 251 187 109 159 174 176 187 197 205 215 230 233 237 247 263 255 296 300 302 307 316 322 319 324 331 332 331 330 333 328 318 321 320 315
90 116 98 137 190 295 304 185 152 175 251 195 154 156 178 184 187 223 214 222 234 222 241 271 262 292 298 296 304 312 314 303 314 325 328 328 328 327 321 314 306 302 302 299
54 70 108 120 144 211 243 257 160 113 294 187 177 176 172 162 178 240 219 213 224 228 264 263 268 272 279 296 312 311 306 310 320 323 322 325 326 319 317 317 319 316 306 309
41 13 153 150 230 286 238 192 125 111 235 179 193 196 181 193 204 211 188 206 212 228 245 243 259 287 310 317 313 304 310 315 315 317 316 321 324 322 317 297 302 305 301 302
171 152 196 108 75 277 187 143 167 207 178 188 200 207 202 213 229 210 194 195 212 219 220 258 298 311 315 313 310 313 318 317 316 312 313 314 317 319 310 306 306 306 309 291
241 188 185 186 214 263 190 226 212 213 222 207 212 207 207 215 217 204 200 203 200 218 258 301 312 316 318 319 320 319 320 316 312 309 311 305 307 313 307 311 305 307 285 284
244 179 206 93 249 242 245 243 252 240 237 246 217 205 206 208 203 203 196 191 205 257 303 315 319 320 322 322 320 318 319 320 317 319 317 294 296 307 310 312 306 281 285 302
202 151 200 258 275 273 263 250 249 245 242 224 204 206 204 205 201 198 187 201 248 304 319 322 322 321 322 323 322 323 322 322 319 326 313 293 291 296 311 318 304 301 306 309
187 197 168 235 250 238 256 251 264 242 233 218 197 196 204 214 192 180 185 242 314 322 322 320 318 318 320 323 323 322 320 319 315 317 313 302 287 277 299 309 310 309 314 305
Wind_Speed_850mb
10 12 4 7 1 7 3 5 11 8 3 16 10 15 19 22 52 46 47 58 54 45 35 25 24 26 27 41 42 36 24 14 17 16 23 24 12 2 9 13 23 28 28 35
13 4 1 12 10 5 10 8 4 9 16 23 25 25 17 25 21 38 49 62 67 62 55 45 34 25 20 25 23 13 13 14 16 16 10 5 12 14 23 27 26 35 47 47
9 3 7 11 13 11 8 4 5 11 15 13 23 18 15 15 29 40 47 56 59 55 45 37 35 30 27 19 19 17 11 0 10 14 17 18 18 22 28 35 40 44 41 43
12 11 9 10 10 5 6 4 5 18 10 9 7 5 4 6 8 15 33 49 53 48 48 42 38 36 29 25 20 15 11 11 12 14 20 27 27 31 33 36 39 34 35 31
7 5 10 10 2 4 5 3 5 4 7 9 7 11 6 11 7 9 23 45 47 39 36 39 35 30 23 21 15 15 14 15 20 26 29 32 33 34 35 31 26 23 25 34
6 3 6 3 1 1 4 9 13 9 6 5 4 10 12 15 14 11 18 39 46 39 42 39 32 21 19 12 9 6 3 9 17 25 28 32 33 31 27 29 26 27 45 50
10 8 9 5 4 4 11 10 6 7 7 8 7 4 11 23 21 21 36 44 40 38 31 27 24 18 12 7 4 5 7 14 22 26 33 35 29 29 31 38 48 61 58 58
7 9 8 11 3 3 6 9 9 10 6 5 8 3 7 10 38 50 47 42 33 29 30 29 22 12 9 10 7 4 9 15 17 21 21 26 31 38 43 43 50 52 58 49
8 3 6 3 3 4 2 7 6 13 6 6 5 5 10 10 16 34 34 37 32 31 29 28 19 17 13 7 6 9 16 18 16 19 24 31 38 45 50 55 58 62 59 48
10 7 4 7 6 8 8 8 7 8 6 2 5 6 8 16 18 8 13 38 37 39 39 34 29 20 10 3 11 17 15 13 21 26 32 36 36 39 47 52 59 56 48 45
5 6 8 5 6 1 8 5 12 10 6 8 4 10 9 18 15 15 27 47 51 47 40 34 22 11 2 10 12 6 8 15 24 30 43 48 50 59 64 60 57 51 46 38
2 9 5 2 10 6 2 5 8 9 6 3 7 9 7 15 31 44 40 52 46 41 33 23 14 4 5 4 1 9 17 25 35 43 53 53 61 66 62 54 44 43 40 53
3 4 6 13 12 10 4 6 9 11 6 9 9 10 5 18 18 21 51 51 42 33 25 15 6 6 6 6 6 15 25 34 39 46 51 63 70 62 63 57 43 42 45 47
6 6 10 13 8 5 5 5 6 8 6 6 11 8 9 9 16 30 40 39 31 21 11 8 9 8 12 10 15 21 28 36 42 51 62 67 61 60 59 57 46 44 51 55
8 7 2 5 8 3 2 6 10 12 9 11 12 15 15 18 20 41 40 30 23 15 10 9 8 13 13 14 19 26 32 39 49 56 60 56 59 61 58 56 47 40 37 35
9 6 2 2 11 11 6 10 13 11 7 12 6 8 7 28 33 39 36 30 22 14 10 8 12 15 21 21 26 25 34 45 53 55 53 54 58 60 56 52 43 34 35 39
7 9 5 6 7 9 12 15 13 7 6 11 12 15 24 13 32 41 35 26 19 14 11 13 18 22 23 25 25 31 39 45 49 48 50 57 55 54 58 51 39 36 42 36
10 8 5 4 6 3 11 8 12 9 3 6 6 17 30 36 38 32 27 24 20 18 15 19 22 22 25 26 28 31 41 45 42 42 55 53 55 58 58 46 35 27 28 25
8 9 7 7 6 10 11 10 12 12 13 11 15 16 25 25 19 26 33 26 18 19 18 19 18 23 21 22 27 39 41 33 39 52 57 51 54 63 50 44 37 33 32 26
10 11 8 5 8 13 12 6 12 10 10 37 33 33 31 34 6 11 40 29 20 20 17 17 20 16 17 24 35 34 31 43 56 53 48 51 63 51 41 33 28 19 15 23
5 6 9 5 6 16 14 11 8 10 14 47 54 54 48 20 25 7 28 25 20 20 18 16 13 15 24 35 37 37 48 53 45 46 45 52 53 43 33 27 31 36 37 33
14 12 7 6 3 16 21 10 14 11 14 41 56 55 62 51 22 21 22 26 20 19 16 12 16 27 38 40 43 49 45 42 46 46 54 50 46 40 32 31 27 23 20 17
5 13 10 18 12 8 36 17 42 18 18 36 47 51 42 34 27 24 28 25 23 17 11 17 30 38 39 41 44 47 47 51 56 58 57 43 38 37 29 30 26 20 15 16
8 15 6 5 10 30 33 43 42 31 32 29 38 39 37 34 32 33 31 26 15 10 18 30 35 40 43 44 43 46 52 54 53 53 37 34 33 29 28 28 23 15 18 25
9 16 8 9 19 25 29 39 44 46 38 30 34 34 36 34 34 36 31 17 11 17 26 32 38 42 44 44 47 53 54 54 47 44 34 35 38 21 26 22 16 23 29 32
18 14 8 13 33 24 28 27 34 45 47 39 40 36 34 34 38 28 17 7 15 23 28 34 39 43 45 48 54 56 50 47 41 43 38 36 35 17 18 20 25 30 37 24
Wind_Direction_850mb
23 61 104 51 140 169 176 161 224 249 78 74 54 46 24 55 105 107 103 106 106 107 114 138 169 184 198 210 214 231 247 214 222 199 191 201 259 195 265 286 300 289 280 301
23 77 286 85 54 76 72 117 20 88 66 88 74 44 42 44 75 107 109 105 105 104 99 98 106 122 148 173 173 166 231 183 191 192 198 346 305 290 288 289 298 307 307 305
125 310 40 87 44 74 33 56 70 98 70 67 88 38 11 25 74 104 112 115 114 110 104 109 115 118 119 111 97 84 78 216 279 279 321 340 319 306 303 297 301 309 302 299
72 337 100 71 82 94 48 335 40 108 96 172 81 136 -0 34 53 84 123 123 121 124 117 117 114 111 101 94 93 88 76 53 26 359 339 334 326 317 309 306 304 300 296 292
239 71 70 64 81 112 177 74 98 71 112 90 27 92 227 137 163 172 160 142 135 124 126 126 118 107 87 81 70 50 31 11 357 342 331 328 317 303 296 289 282 278 284 296
88 119 77 221 307 250 128 95 41 51 82 56 274 127 204 193 192 178 187 157 148 152 142 124 110 91 78 112 114 93 34 336 323 316 313 306 284 284 277 273 270 296 312 303
8 354 319 37 94 6 73 71 13 9 12 202 303 78 222 204 167 183 183 174 167 159 148 128 122 135 156 161 215 256 279 305 314 311 311 305 296 308 313 312 316 316 316 306
120 351 2 335 94 200 54 138 150 185 178 238 5 357 274 165 159 180 177 172 171 159 143 144 142 153 142 122 98 33 321 325 336 336 349 348 334 328 332 326 323 322 329 316
131 316 316 293 352 114 154 47 151 107 1 72 276 22 -0 71 136 165 174 170 173 164 152 148 155 153 140 111 54 356 346 341 351 1 350 338 336 334 334 331 326 324 321 316
183 104 9 309 55 21 114 145 52 9 123 231 278 220 218 201 199 198 112 141 136 152 148 143 138 133 120 4 334 329 327 325 340 344 341 337 335 330 328 322 321 313 305 298
98 96 279 20 24 299 3 38 63 107 107 156 174 257 217 196 178 161 128 142 141 147 150 143 140 133 23 335 332 344 357 1 348 343 341 335 335 333 327 321 316 306 292 276
22 121 101 211 294 296 189 129 110 107 219 51 145 276 347 147 155 143 140 149 150 146 141 139 140 140 320 324 40 8 353 339 337 335 334 333 332 332 332 333 320 298 283 289
170 19 63 353 350 348 101 63 91 102 91 194 130 264 21 118 129 149 145 150 144 142 142 147 176 197 165 181 319 330 329 330 332 330 333 337 338 336 335 332 326 313 309 300
100 88 149 182 198 186 143 125 125 116 118 186 220 192 210 171 150 146 151 150 149 148 154 172 182 188 193 258 303 321 325 329 332 333 337 339 339 339 336 337 330 315 307 301
79 117 69 61 29 15 278 170 186 193 185 167 250 203 203 183 166 162 159 157 163 181 203 202 212 193 247 281 305 314 322 327 331 333 338 341 339 338 336 334 329 316 303 298
13 154 340 113 4 3 284 245 245 234 209 258 151 245 188 163 161 164 175 181 194 219 246 220 254 253 256 281 298 309 320 324 329 333 337 339 338 336 334 334 328 326 303 293
70 125 81 253 341 333 335 218 195 193 192 151 185 213 159 167 173 181 190 201 214 232 232 239 258 249 262 292 301 311 316 321 327 330 334 336 334 333 336 332 327 320 318 282
122 93 77 182 16 22 244 299 237 188 251 187 109 159 174 176 187 197 205 215 230 233 237 247 263 255 296 300 302 307 316 322 319 324 331 332 331 330 333 328 318 321 320 315
90 116 98 137 190 295 304 185 152 175 251 195 154 156 178 184 187 223 214 222 234 222 241 271 262 292 298 296 304 312 314 303 314 325 328 328 328 327 321 314 306 302 302 299
54 70 108 120 144 211 243 257 160 113 294 187 177 176 172 162 178 240 219 213 224 228 264 263 268 272 279 296 312 311 306 310 320 323 322 325 326 319 317 317 319 316 306 309
41 13 153 150 230 286 238 192 125 111 235 179 193 196 181 193 204 211 188 206 212 228 245 243 259 287 310 317 313 304 310 315 315 317 316 321 324 322 317 297 302 305 301 302
171 152 196 108 75 277 187 143 167 207 178 188 200 207 202 213 229 210 194 195 212 219 220 258 298 311 315 313 310 313 318 317 316 312 313 314 317 319 310 306 306 306 309 291
241 188 185 186 214 263 190 226 212 213 222 207 212 207 207 215 217 204 200 203 200 218 258 301 312 316 318 319 320 319 320 316 312 309 311 305 307 313 307 311 305 307 285 284
244 179 206 93 249 242 245 243 252 240 237 246 217 205 206 208 203 203 196 191 205 257 303 315 319 320 322 322 320 318 319 320 317 319 317 294 296 307 310 312 306 281 285 302
202 151 200 258 275 273 263 250 249 245 242 224 204 206 204 205 201 198 187 201 248 304 319 322 322 321 322 323 322 323 322 322 319 326 313 293 291 296 311 318 304 301 306 309
187 197 168 235 250 238 256 251 264 242 233 218 197 196 204 214 192 180 185 242 314 322 322 320 318 318 320 323 323 322 320 319 315 317 313 302 287 277 299 309 310 309 314 305